CAPE
512 631 705 868 956 979 951 1024 1136 1070 763 584 655 654 552 548 311 358 429 441 593 713 1038 1216 1362 1393 948 1280 1010 587 204 38 68 63 211 506 502 767 655 801 952 607 401
566 710 696 902 987 925 930 1001 1181 1123 1096 819 929 983 913 707 697 810 431 131 104 733 867 1221 1454 1451 1170 1283 1183 640 304 0 23 57 6 132 236 539 787 951 692 485 420
729 738 881 911 951 925 1080 1128 1183 1145 1066 1111 1173 1113 1222 1306 856 624 656 318 218 659 987 1326 1482 1456 1342 1299 1427 887 525 154 7 0 0 0 100 169 248 374 580 308 89
907 878 827 1020 1049 1072 1227 1245 1288 1420 1334 1392 1469 1438 1380 1398 1368 1162 698 432 430 746 982 1127 1465 1353 1379 1718 1471 1346 885 337 119 40 0 0 0 0 79 40 0 141 81
1362 1428 1375 1335 1533 1317 1380 1426 1436 1471 1473 1448 1376 1344 1366 1378 1421 1319 871 343 216 697 915 1454 1507 1427 1422 1606 1465 1383 1348 788 418 203 163 107 54 0 0 0 0 28 40
446 773 1242 1103 735 673 754 777 951 1053 1020 944 856 771 649 803 931 784 1263 1028 717 820 1077 1536 1516 1174 948 780 1012 1060 1483 1158 1017 598 517 426 379 172 61 10 0 30 0
882 1028 880 652 1213 1175 1022 860 650 441 130 55 38 20 23 425 1028 888 895 1331 1673 1276 1292 1343 1596 1387 1239 1297 787 830 834 890 1034 1090 941 680 718 556 278 162 18 0 0
658 424 436 828 1011 1240 886 600 550 288 92 5 0 0 0 10 31 107 459 822 1391 1736 1641 1680 1611 1579 1609 1403 1516 1513 1218 1213 833 787 951 1029 641 661 429 389 216 79 29
14 2 8 176 505 896 863 823 688 323 101 34 1 0 1 0 1 1 74 500 898 1277 1560 1695 1701 1773 1626 1112 1340 1451 1687 1516 1223 762 694 722 549 333 227 142 118 58 19
0 0 0 50 99 289 594 580 476 256 3 0 0 0 0 0 1 0 0 129 345 766 965 897 807 1171 1189 859 1078 1607 1572 1321 1239 897 510 289 132 123 43 127 118 40 2
0 0 0 0 14 83 209 530 417 163 33 0 0 0 36 25 2 0 0 37 148 202 364 402 420 385 363 272 334 484 415 479 782 866 750 420 230 93 45 25 54 22 1
0 0 0 0 0 1 161 231 152 136 176 27 0 0 0 0 0 0 0 0 31 103 254 386 445 367 304 145 81 52 15 87 178 598 517 461 240 55 28 19 4 3 0
0 0 0 0 0 0 0 0 10 64 56 160 117 21 9 22 19 0 0 0 2 37 200 198 71 64 38 66 146 116 12 13 17 246 301 409 299 161 59 92 34 7 5
0 0 0 0 0 0 0 0 0 0 6 84 111 151 101 145 366 410 120 1 0 0 10 36 126 309 371 309 183 49 27 52 232 276 346 402 293 183 100 62 44 16 10
0 0 0 0 0 0 0 0 0 0 0 0 3 164 366 261 400 344 466 436 132 9 0 8 437 686 718 648 342 203 175 168 217 307 365 369 287 153 120 10 11 25 41
0 0 0 0 0 1 2 0 0 0 0 0 0 0 0 4 2 0 0 3 31 243 229 622 628 534 428 415 347 304 261 115 132 214 277 302 202 114 59 9 2 12 3
4 1 0 1 1 0 1 1 0 0 0 0 0 0 0 0 0 0 0 0 0 2 369 770 695 769 698 649 501 327 252 217 181 155 197 203 155 118 46 6 2 3 3
2 1 1 2 2 2 0 0 2 5 4 0 0 0 0 0 0 0 0 0 22 2 205 389 682 789 861 860 622 548 516 373 160 194 126 64 155 131 73 30 2 3 4
2 0 1 4 2 1 2 2 1 1 3 9 6 0 0 0 0 0 0 0 52 45 44 123 159 117 242 411 703 670 614 506 312 72 60 4 43 75 43 5 1 0 1
7 0 6 5 2 1 3 3 7 3 1 3 2 6 7 1 0 11 0 0 0 0 32 2 0 0 0 0 0 52 401 442 259 8 59 92 122 63 6 1 2 3 3
8 5 1 6 6 5 1 11 1 9 21 2 0 0 0 2 7 42 20 0 0 0 0 0 0 0 26 199 230 272 454 413 473 245 196 117 79 35 7 3 4 3 1
9 7 9 6 8 1 2 21 3 0 0 16 20 20 0 13 46 34 20 21 12 24 24 12 1 0 0 39 118 126 295 468 517 546 401 213 91 25 5 2 2 3 1
4 0 2 12 2 2 6 12 13 8 6 4 9 12 33 31 27 1 0 3 6 29 31 38 45 57 44 83 169 219 301 320 307 386 357 300 259 52 19 4 3 2 1
1 2 2 3 1 3 3 2 5 2 4 18 35 48 28 32 16 15 3 14 17 34 38 42 52 66 142 208 254 263 247 271 277 335 316 249 198 125 57 5 4 2 4
0 0 1 2 3 2 2 2 3 13 7 0 1 2 4 17 29 66 72 44 28 45 65 112 207 237 203 211 224 204 161 100 83 93 147 157 147 125 105 6 2 2 2
0 0 0 0 0 0 0 1 1 2 3 2 1 1 2 2 1 1 1 1 7 27 75 80 108 143 113 79 67 25 13 1 0 0 1 50 103 154 140 14 2 1 2
CIN
-282 -238 -242 -231 -248 -239 -190 -175 -125 -98 -105 -115 -110 -106 -107 -101 -96 -49 -39 -31 -12 -11 -11 -16 -12 -11 -19 -12 -29 -42 -55 -73 -22 -26 -30 -57 -74 -56 -54 -49 -31 -56 -51
-245 -251 -262 -259 -244 -228 -213 -173 -147 -127 -129 -117 -110 -101 -101 -104 -85 -56 -38 -92 -86 -25 -7 -8 -12 -10 -14 -8 -20 -46 -61 0 -37 -45 -12 -55 -65 -72 -31 -18 -35 -32 -29
-233 -216 -215 -256 -237 -216 -200 -185 -157 -150 -127 -116 -108 -94 -69 -61 -83 -87 -60 -31 -49 -34 -10 -8 -7 -11 -8 -1 -8 -29 -60 -119 -93 0 0 0 -89 -106 -87 -62 -26 -34 -69
-206 -212 -221 -215 -205 -202 -181 -192 -161 -157 -136 -120 -100 -98 -103 -93 -78 -56 -52 -44 -13 -16 -9 -9 -15 -12 -11 -3 -10 -16 -30 -101 -184 -198 0 0 0 0 -143 -164 0 -70 -73
-183 -169 -170 -168 -152 -170 -198 -202 -205 -173 -159 -154 -151 -149 -145 -132 -117 -107 -137 -105 -106 -48 -14 -20 -18 -19 -20 -13 -3 -8 -5 -34 -84 -158 -175 -166 -144 0 0 0 0 -94 -91
-336 -267 -214 -217 -238 -218 -224 -233 -219 -236 -232 -214 -194 -169 -184 -188 -175 -192 -119 -133 -110 -71 -28 -50 -40 -46 -59 -77 -54 -21 -14 -27 -23 -75 -88 -127 -131 -172 -190 -99 0 -127 0
-285 -246 -253 -273 -169 -158 -185 -224 -258 -274 -325 -350 -392 -418 -431 -207 -110 -166 -193 -79 -37 -52 -38 -35 -35 -22 -50 -42 -115 -88 -76 -79 -42 -38 -32 -86 -57 -87 -120 -182 -118 0 0
-252 -278 -263 -202 -164 -114 -177 -245 -252 -276 -317 -165 0 0 0 -387 -350 -220 -188 -165 -59 -16 -51 -53 -47 -38 -35 -40 -25 -22 -42 -35 -112 -79 -54 -42 -87 -83 -112 -125 -190 -224 -214
-63 -85 -483 -299 -204 -151 -153 -152 -154 -215 -285 -345 -49 0 -57 -99 -81 -65 -163 -162 -87 -31 -21 -46 -59 -46 -46 -69 -35 -16 -8 -14 -45 -124 -117 -100 -139 -183 -203 -235 -247 -260 -200
0 0 0 -329 -298 -208 -159 -157 -161 -194 -79 0 0 0 0 0 -18 0 -12 -159 -118 -92 -43 -77 -104 -69 -64 -79 -66 -7 -2 -27 -15 -73 -152 -238 -332 -334 -367 -289 -286 -279 -247
0 0 0 0 -201 -213 -146 -81 -107 -180 -334 0 0 0 -301 -270 -96 0 0 -171 -160 -189 -115 -113 -178 -180 -151 -156 -125 -57 -98 -67 -12 -15 -41 -146 -212 -305 -380 -389 -330 -358 -148
0 0 0 0 0 -52 -186 -129 -193 -212 -213 -423 0 0 0 0 0 0 0 0 -169 -160 -125 -119 -141 -143 -131 -204 -239 -296 -356 -190 -125 -52 -48 -57 -120 -264 -346 -330 0 0 0
0 0 0 0 0 0 0 0 -30 -270 -273 -138 -171 -303 -340 -297 -296 0 0 0 -331 -235 -133 -128 -162 -184 -201 -260 -246 -256 -340 -306 -352 -138 -109 -51 -98 -191 -198 -200 -252 0 0
0 0 0 0 0 0 0 0 0 0 -222 -136 -125 -120 -154 -102 -44 -67 -216 -44 0 0 -282 -238 -147 -90 -97 -129 -152 -278 -319 -306 -151 -118 -53 -44 -77 -158 -179 -164 -224 -319 -371
0 0 0 0 0 0 0 0 0 0 0 0 -1 -82 -9 -52 -53 -81 -63 -55 -153 -101 0 -225 -77 -32 -24 -31 -102 -163 -184 -172 -121 -67 -67 -98 -132 -165 -189 -220 -165 -336 -328
0 0 0 0 0 -1 -1 0 0 0 0 0 0 0 -1 -63 -44 0 0 -71 -250 -91 -88 -44 -55 -74 -84 -86 -105 -105 -122 -240 -230 -186 -146 -143 -186 -195 -217 -160 0 -344 0
0 0 0 0 0 0 0 0 -1 0 0 0 0 0 0 0 0 0 0 0 0 -201 -76 -19 -21 -32 -58 -76 -101 -128 -144 -150 -172 -199 -188 -202 -255 -301 -317 -207 0 0 0
0 0 0 0 0 0 0 0 0 0 0 0 0 0 0 0 0 0 0 0 -119 -47 -124 -84 -25 -10 -3 -20 -52 -66 -53 -88 -201 -164 -231 -292 -248 -262 -299 -333 0 0 0
0 0 0 0 0 0 0 0 0 0 0 0 0 0 0 0 0 0 0 0 -160 -186 -202 -132 -80 -17 -64 -70 -8 -14 -16 -15 -39 -154 -235 -164 -285 -279 -299 -82 0 0 0
0 0 -2 0 -3 0 0 0 -25 0 -1 0 0 0 -1 0 0 0 0 0 0 0 -187 -190 0 0 0 0 -17 -101 -4 -16 -27 -109 -139 -149 -115 -177 -252 0 0 0 0
0 -2 -4 -2 0 0 0 -4 -22 -8 0 -1 0 -1 0 -25 -20 -4 -21 0 0 0 0 0 0 0 -37 -6 -13 -16 0 -3 -1 -23 -59 -85 -132 -180 -197 0 0 0 0
0 -2 0 -1 0 0 0 -1 -43 0 0 -4 -6 -2 -3 -44 -6 -7 -14 -22 -31 -57 -16 -99 -24 0 0 -16 -46 -29 -9 -1 -1 -1 -18 -53 -96 -174 -197 0 -49 0 0
-1 -1 0 0 -1 -1 -1 -19 -14 -41 -33 -42 -42 -42 -9 -33 -34 -56 0 -26 -67 -44 -30 -28 -27 -29 -13 -14 -43 -34 -7 -6 -15 -2 -8 -22 -29 -93 -152 -55 0 0 0
0 0 0 0 0 0 0 0 0 0 -32 -21 -3 -1 -14 -38 -66 -69 -66 -51 -42 -32 -39 -35 -33 -8 -37 -43 -27 -15 -7 -8 -7 -1 -6 -19 -24 -33 -60 0 0 0 0
0 0 0 0 0 0 0 0 0 0 -1 0 0 0 -5 -6 -1 0 -2 -8 -11 -6 -5 -4 -3 -7 -16 -23 -24 -30 -42 -64 -63 -70 -27 -22 -21 -15 -18 -38 0 0 0
0 0 0 0 0 0 0 0 -1 0 -1 0 0 0 0 0 0 0 0 0 -4 0 0 -2 0 0 -5 -20 -30 -42 -62 -114 -126 0 -97 -46 -25 -8 -2 -23 0 0 0
Wind_Speed
11 19 11 5 5 5 6 7 7 9 11 7 6 5 5 6 1 16 28 27 34 35 31 29 26 23 19 18 16 14 13 13 9 11 13 11 11 6 5 2 3 2 2
5 21 14 7 7 5 5 6 7 6 5 5 4 3 2 5 2 4 6 11 31 39 36 31 26 20 19 16 14 12 12 10 8 11 12 13 14 10 9 4 3 1 1
8 24 20 12 7 7 9 8 8 8 7 7 7 7 7 8 7 7 8 7 11 40 39 32 29 20 19 17 14 11 10 9 10 12 15 16 15 13 12 11 6 5 3
7 19 24 19 17 16 14 12 12 10 10 10 10 11 10 10 10 11 12 18 21 35 40 35 30 25 20 15 13 12 11 9 8 9 15 18 15 14 14 14 13 8 7
19 24 21 22 20 19 16 18 17 15 14 12 12 14 14 14 13 12 13 16 10 30 38 34 32 25 19 17 16 15 13 12 10 10 10 13 14 14 12 13 14 13 12
18 17 13 13 11 16 15 13 13 12 12 14 15 17 17 19 17 16 17 17 15 18 28 28 30 27 22 18 17 17 15 15 15 16 17 15 13 12 13 13 13 12 15
22 22 18 12 18 16 10 11 13 15 15 18 20 27 29 30 30 28 23 24 24 23 26 28 29 30 26 24 21 19 18 17 18 22 24 22 21 16 14 13 11 11 16
24 25 26 25 25 21 13 11 11 22 24 25 23 27 29 26 27 33 36 30 29 31 29 28 28 29 27 24 25 25 23 22 22 23 25 26 23 21 17 17 16 17 21
27 29 31 31 31 30 29 27 26 25 26 25 25 26 26 29 25 28 28 31 32 34 34 32 30 32 28 24 27 28 29 28 26 23 25 26 25 22 21 19 20 20 23
25 26 28 28 28 29 27 29 29 27 31 31 30 26 28 28 27 24 24 30 34 34 35 35 34 34 34 29 27 30 32 30 29 27 26 25 23 22 19 20 19 22 26
24 25 26 27 27 27 28 26 27 31 32 31 28 24 24 24 25 14 12 29 33 35 36 37 33 36 35 33 28 29 30 31 31 29 26 23 25 26 25 25 25 23 23
26 24 26 28 28 29 29 29 27 26 27 27 25 25 27 30 30 19 12 18 33 31 34 35 34 34 39 35 33 32 33 31 29 27 27 28 27 26 29 29 28 27 27
30 31 31 29 27 31 30 30 28 25 25 24 23 23 25 34 33 36 36 20 22 37 37 38 33 33 32 27 24 35 33 32 31 33 30 27 24 25 24 25 27 23 20
31 32 33 32 31 30 29 28 28 27 27 26 26 27 28 28 29 26 27 24 25 31 34 34 31 29 27 26 24 24 24 25 28 29 29 28 25 23 25 26 26 25 21
27 28 31 32 31 31 29 29 28 27 28 31 30 29 30 29 27 25 25 23 22 21 24 26 26 27 27 25 25 24 23 24 25 26 25 25 25 23 23 23 25 23 23
26 27 29 32 31 31 30 30 26 26 30 32 35 33 34 34 35 32 31 31 31 28 24 26 27 25 27 27 26 27 25 25 25 23 23 22 22 20 21 21 21 21 22
25 26 28 28 31 32 33 33 34 32 31 32 33 32 34 38 38 35 33 32 32 27 29 33 33 31 30 29 28 29 30 28 27 26 24 22 20 19 20 21 22 23 23
29 29 28 29 28 29 30 32 33 32 32 31 28 31 33 35 36 36 34 32 35 33 33 35 36 37 35 34 32 32 31 28 27 29 27 25 23 23 24 24 23 23 24
29 30 31 30 28 27 26 27 29 30 32 31 28 26 25 28 30 29 27 33 35 36 36 36 36 38 38 36 37 36 33 34 34 34 30 27 25 23 25 25 25 25 24
29 31 32 30 28 27 25 25 26 27 27 25 25 25 23 22 24 24 23 25 30 33 36 39 39 39 44 40 43 40 37 36 39 33 31 25 24 25 26 25 26 27 27
30 31 33 33 31 27 25 24 25 27 27 24 22 22 19 19 20 20 19 20 18 25 31 34 35 34 36 38 36 38 38 33 34 31 29 27 26 25 26 24 26 27 28
30 32 34 35 36 33 27 26 26 26 26 26 27 25 19 14 14 22 23 19 21 22 26 28 31 32 37 32 33 33 32 33 32 31 31 31 29 29 29 29 28 28 29
30 32 33 34 36 35 32 30 29 28 27 27 27 27 24 18 11 15 22 26 22 19 29 32 34 25 26 32 29 30 34 33 34 32 32 32 32 30 30 30 29 29 29
29 31 32 33 35 35 35 35 33 33 33 31 27 23 23 20 16 15 14 15 19 23 27 19 21 32 28 28 29 29 29 30 32 32 31 31 32 32 31 31 29 28 29
30 30 31 32 32 33 34 34 35 33 34 34 33 32 29 27 26 22 16 19 23 28 29 29 27 29 29 32 33 33 33 33 31 32 32 31 32 32 31 30 29 28 27
28 29 30 31 32 33 34 34 34 32 32 33 34 34 32 31 31 30 28 26 26 27 26 28 29 30 31 31 31 32 33 32 32 33 32 32 33 33 33 33 32 30 28
Wind_Direction
278 281 283 250 240 267 262 278 283 296 301 306 317 332 339 335 319 211 267 269 263 259 263 265 270 274 277 286 291 298 303 306 316 322 319 329 327 333 331 328 350 55 66
282 278 287 282 285 273 245 262 282 273 282 282 289 289 281 314 316 205 245 268 269 255 257 263 269 274 275 281 288 289 296 301 308 308 315 313 313 324 317 310 317 337 117
160 273 287 297 289 288 292 288 286 287 285 286 289 286 287 298 292 297 278 261 256 254 253 261 266 272 274 278 280 284 288 294 299 305 304 302 306 313 315 312 311 311 315
44 297 282 294 295 297 295 293 290 284 283 285 281 281 279 278 279 284 283 294 284 260 252 259 266 271 272 272 273 274 279 280 287 295 298 294 301 308 307 309 308 304 301
327 283 296 295 302 299 291 296 287 282 280 274 277 281 284 285 282 278 274 281 250 268 257 261 266 271 268 266 272 272 270 270 275 281 288 294 299 304 305 311 309 311 304
345 342 339 327 321 305 293 295 288 270 266 274 276 281 281 285 282 271 274 272 261 264 266 266 268 271 268 257 249 265 262 263 268 277 284 286 291 297 302 304 310 310 308
334 337 345 346 321 309 309 300 293 288 290 293 297 288 292 296 287 283 269 272 270 264 267 266 268 270 270 271 262 255 252 248 263 274 277 280 287 288 291 293 293 294 302
331 326 323 324 314 317 320 307 293 295 294 298 297 293 294 298 292 283 270 269 265 265 265 265 265 268 269 269 271 272 269 269 267 270 275 279 281 284 281 285 288 293 298
326 320 314 311 306 306 307 308 306 304 302 304 303 299 298 299 295 284 278 266 261 261 263 264 264 266 267 264 268 270 273 275 275 270 273 278 279 278 278 282 283 284 290
341 335 327 321 318 313 313 310 309 307 303 304 304 303 305 309 305 280 271 263 259 259 263 265 265 265 267 268 268 270 272 274 277 282 279 275 275 274 268 268 273 279 287
343 340 335 329 322 318 313 314 310 304 302 304 303 303 309 313 323 321 254 262 257 259 263 263 267 266 266 269 273 271 271 276 281 281 282 277 277 277 279 276 278 284 294
340 341 334 329 324 319 315 312 313 311 306 305 305 299 303 303 302 301 284 249 257 264 266 266 265 267 265 270 271 271 273 276 281 284 282 279 278 271 275 276 276 280 291
334 329 327 328 327 317 316 312 312 311 307 308 306 302 303 300 296 285 280 282 246 262 266 264 266 268 269 272 273 270 270 271 275 281 284 286 282 275 277 278 277 277 286
334 331 328 329 325 321 318 315 312 310 306 302 301 301 302 302 297 293 288 283 270 265 264 265 266 268 267 270 273 272 272 275 279 282 284 288 288 282 280 279 278 275 281
345 343 340 336 332 327 323 319 315 309 305 301 300 299 297 294 295 291 285 282 276 268 266 265 263 261 263 267 271 273 276 280 282 285 288 288 286 284 280 278 278 279 278
350 349 346 342 342 336 331 327 325 318 308 301 294 294 291 287 285 286 281 278 276 274 266 263 261 261 264 268 271 275 278 281 283 284 288 288 288 283 281 279 277 277 277
352 350 348 347 342 339 336 332 326 321 315 306 300 297 291 284 283 282 279 276 275 269 267 266 265 265 267 270 273 277 280 283 284 285 288 287 286 283 280 280 278 277 277
354 351 348 346 344 343 342 337 333 329 323 316 311 304 297 292 286 281 279 276 271 268 267 270 269 270 271 272 273 276 280 282 283 285 286 288 286 284 282 279 278 277 277
357 356 352 351 350 347 347 346 343 337 330 324 320 313 309 306 297 293 286 278 273 269 265 266 270 273 272 273 275 277 280 282 281 280 284 286 284 282 281 280 279 276 274
1 359 357 357 358 357 355 352 350 350 346 340 329 321 315 312 305 303 299 289 281 274 269 265 267 273 273 275 276 277 279 281 276 280 282 282 282 281 281 280 279 277 275
2 2 359 360 0 1 2 360 359 356 357 358 350 341 330 318 314 315 313 304 299 288 278 272 271 269 276 275 277 278 278 278 275 274 277 280 281 282 282 283 281 279 276
8 2 1 3 4 5 8 4 1 2 0 358 350 343 345 328 317 315 315 318 309 300 289 282 276 274 273 282 276 278 282 279 277 275 276 278 280 281 281 281 280 279 276
10 7 8 9 9 9 9 6 3 2 359 356 350 346 350 354 346 329 319 300 301 240 286 272 271 287 278 276 284 279 277 280 278 279 278 278 279 280 281 281 280 279 277
9 9 10 12 13 15 16 14 13 9 5 0 357 354 348 349 350 340 334 331 317 298 284 301 298 282 293 294 290 288 286 283 282 283 281 280 280 280 281 282 281 279 278
12 12 12 12 13 13 14 15 15 13 11 8 3 0 359 351 344 336 330 319 308 296 293 293 297 298 299 294 291 289 287 285 284 283 282 282 280 280 279 280 279 279 278
17 18 17 17 17 16 15 14 13 11 12 13 10 9 5 1 359 353 347 336 318 308 304 303 304 304 303 300 296 293 291 289 287 284 282 281 279 277 278 278 277 277 277